Погода в Первушине

Россия / Костромская область     58°02′42″N   41°56′19″E
темп.,
°C
ветер,
м/с
пор.,
м/с
влажн.,
%
обл.,
%
осадки,
мм/ч
давл.,
гПа
погр.,
м
7 марта, вс
вс700:00−15ююз239838 0.0 101052
03:00−16ю379744 0.0 1008143
06:00−14ю4119471 0.0 1004293
09:00−10ю6129186 0.1 1000605
12:00−8ю61192100 1.0 996790
15:00−7ююв61192100 1.8 992852
18:00−6ююв51194100 1.0 990672
21:00−8зсз51291100 2.5 990699
8 марта, пн
пн800:00−11зюз3790100 0.0 990167
03:00−15з239050 0.0 99124
06:00−17зюз22970 0.0 99120
09:00−13зсз239318 0.0 993134
12:00−8сз248868 0.0 995444
15:00−8с479084 0.3 998738
18:00−11ссз4991100 0.1 1001574
21:00−13ссз41093100 0.2 1004515
9 марта, вт
вт900:00−17ссз4996100 0.1 1007301
03:00−21ссз389896 0.1 1009223
06:00−24ссз379764 0.0 1011189
09:00−23ссз369554 0.0 1013252
12:00−18ссз359066 0.0 1014401
15:00−17ссз468981 0.0 1015561
18:00−19ссз3895100 0.0 1016317
21:00−22ссз389797 0.1 1019258
10 марта, ср
ср1000:00−26ссз259837 0.0 1020102
03:00−29ссз259818 0.0 1022102
06:00−30ссз25980 0.0 1023102
09:00−26ссз25940 0.0 1024207
12:00−19сз35850 0.0 1024350
15:00−15зсз47839 0.0 1023517
18:00−17зсз310920 0.0 1022327
21:00−19зсз499514 0.0 1023251
11 марта, чт
чт1100:00−21зсз389766 0.0 1023163
03:00−21зсз389851 0.0 1024153
06:00−22з36970 0.0 1024102
09:00−18з35900 0.0 1024195
12:00−12зюз35830 0.0 1023344
15:00−9зюз24750 0.0 1022484
18:00−14ююв23890 0.0 102120
21:00−16ююв310920 0.0 1020199